040  
ASUS42 KKEY 021910  
RWRKEY  
 
FLORIDA REGIONAL WEATHER ROUNDUP FOR THE FLORIDA KEYS  
NATIONAL WEATHER SERVICE KEY WEST FLORIDA  
200 PM EST FRI DEC 02 2016  
   
..SOUTH FLORIDA AND THE KEYS
 
 
 
CITY SKY/WX TMP DP RH WIND PRES REMARKS
 
FORT MYERS SUNNY 81 63 54 E6 30.04F  
SW REGIONAL AP SUNNY 81 61 50 NE10 30.05F  
NAPLES SUNNY 84 66 54 N7 30.02F  
MIAMI PTSUNNY 81 72 74 N5 30.02F  
WEST KENDALL CLOUDY 83 72 69 N8 30.02F  
HOMESTEAD MOSUNNY 82 76 81 NE10 30.01F  
MARATHON PTSUNNY 81 75 82 NE12 30.00F  
BOCA CHICA NAS PTSUNNY 78 74 87 E10 30.00F  
KEY WEST INTL CLOUDY 79 74 84 E7 30.00F  
   
..INTERNATIONAL WEATHER
 
 
 
CITY SKY/WX TMP DP RH WIND PRES REMARKS
 
NASSAU BAHAMAS MOSUNNY 79 72 78 VRB1 30.03F  
CANCUN MEXICO PTSUNNY 86 72 62 E10 29.97F HX 92  
COZUMEL MEXICO MOSUNNY 84 73 70 E8 29.95F HX 91  
 
ADJACENT COASTAL WATERS...  
 
STATION/POSITION TIME SKY/WX TEMP WIND PRES WAVE
 
AIR SEA DIR/SP/G HT/PER  
(UTC) (F) (DEG/KT/KT) (MB) (FT/S)  
PULASKI SHOAL LI 1900 74 50/ 13/ 14 1016.6F  
SAND KEY 1850 76 90/ 10/ 11 1016.5F  
LONG KEY 1800 77 78 10/ 10/ 10 1017.1F  
FOWEY ROCKS 1900 78 78 20/ 7/ 8 1017.2F  
 

 
 
 
CLICK HERE TO GO TO PREVIOUS BULLETINS.

The Nexlab FL Page Main Text Page